Starlink 32391

operational
NORAD ID: 61855 Int'l Des: 2024-202 Owner: SPXS Country: US Constellation: starlink
LEOCIRCULAR

关于 Starlink 32391

正在加载描述...

实时位置

正在加载3D地球...

即将过境

高度历史

Altitude vs Time

uPlot chart will show altitude changes over time

两行轨道根数

1 61855U 24202L 25351.00195486 -.00000861 00000-0 -21745-4 0 9994
2 61855 43.0010 344.7921 0001498 265.2420 94.8261 15.27584035 62680
Epoch: Dec 17, 2025 • Age: 31 hours

当前状态

高度 494.5 km
速度 7.62 km/s
星下点 -41.00°S, 75.69°E
发射日期 Nov 7, 2024
运行时间 1.1 years
类型 internet

技术详情

分类 Payload
质量 730.00 kg
干质量 700.00 kg
总质量 730.00 kg
长度 0.30 m
直径 4.10 m
跨度 29.00 m
形状 Box + pan
制造商 SPXS
平台类型 Starlink V2M
阶段状态 In Orbit
所有者/国家 SPXS/US

大型星座

Loading constellations...